Lapse_Rate
5.0 5.0 5.1 5.2 5.2 5.2 5.1 5.1 5.3 5.5 5.7 5.8 6.0 6.2 5.9 5.8 6.3 6.4 6.4 6.5 6.4 6.1 6.2 6.3 6.4 6.2 6.1 5.9 6.0 6.1 5.3 5.2 6.6 7.4 7.9 7.7 7.4 6.6 6.4 6.6 6.5 6.6 6.8 7.1 7.4
5.0 5.0 4.9 4.8 4.9 5.0 5.0 4.9 4.8 4.9 5.0 5.2 5.5 5.8 5.9 6.0 6.1 6.3 6.4 6.5 6.5 6.4 6.3 6.4 6.4 6.1 5.9 6.0 5.7 5.7 5.7 5.9 7.1 7.5 7.8 7.6 7.0 6.7 6.3 6.3 6.7 6.6 6.8 6.8 6.9
4.9 4.9 5.1 5.0 4.9 4.9 5.0 5.0 4.9 4.8 4.9 4.9 5.0 5.3 5.6 5.6 5.9 6.3 6.2 6.5 6.6 6.4 6.3 6.3 6.3 6.2 5.9 5.9 5.9 6.0 5.9 6.2 7.1 7.5 7.3 7.2 7.1 6.8 6.7 6.7 7.0 6.8 6.8 6.8 7.1
5.5 5.3 5.3 5.3 5.2 5.3 5.2 5.1 5.1 4.9 4.8 4.9 4.8 5.0 5.2 5.4 5.2 6.0 6.4 6.2 6.6 6.5 6.3 6.6 6.3 6.2 6.2 6.1 6.3 6.0 6.1 6.1 6.9 7.2 6.8 6.8 7.0 6.7 6.5 6.6 7.2 6.9 7.0 6.9 7.1
5.6 5.5 5.6 5.5 5.3 5.4 5.4 5.4 5.4 5.3 5.2 5.0 4.9 4.9 5.1 5.4 5.7 5.9 6.0 5.9 6.1 6.3 6.3 6.3 6.5 6.4 6.1 6.4 6.1 5.9 6.1 6.1 6.4 6.7 6.6 6.7 6.9 7.2 6.5 7.0 7.3 7.0 7.1 7.2 7.3
6.1 6.0 5.7 5.7 5.9 5.8 5.9 5.8 5.8 5.9 5.5 5.4 5.2 5.1 5.1 5.8 6.2 6.2 5.7 6.1 5.8 6.1 5.9 6.1 6.1 6.1 5.7 5.7 5.8 5.9 5.7 5.8 5.9 6.2 6.3 6.2 6.9 6.5 6.9 7.5 6.9 7.1 7.4 7.5 7.5
5.8 5.6 5.7 5.6 5.8 5.8 5.8 5.9 6.0 5.8 5.8 5.7 5.6 5.3 5.3 6.3 6.1 5.9 5.8 6.0 6.1 6.0 5.9 5.7 5.9 5.8 5.5 5.4 5.7 5.8 5.8 5.4 5.7 6.2 6.3 6.7 6.3 7.0 7.6 7.5 7.2 7.4 7.5 7.5 7.3
5.2 5.1 5.1 5.2 5.3 5.3 5.4 5.5 5.7 6.0 5.6 5.7 5.7 5.4 5.5 6.1 6.0 6.1 5.8 6.0 6.0 6.0 6.0 6.0 5.7 5.5 5.4 5.3 5.4 5.6 5.7 5.3 5.5 6.0 6.1 6.9 6.3 6.8 7.0 7.4 7.2 7.5 7.3 7.1 7.2
5.2 5.1 4.9 4.8 4.8 4.9 5.1 5.3 5.7 5.5 5.5 5.4 5.5 5.4 5.5 6.1 6.4 6.5 6.1 6.1 6.2 6.0 6.1 6.1 5.8 5.4 5.4 5.2 5.1 5.0 5.2 5.4 5.4 5.6 6.2 6.6 6.3 6.4 7.1 6.9 6.9 6.8 6.9 7.0 7.1
5.1 5.1 5.0 4.8 4.5 3.8 4.0 4.8 5.4 5.3 5.4 5.1 5.0 5.1 5.5 6.1 6.2 6.1 6.1 6.2 6.4 6.2 6.0 5.7 5.4 5.0 4.9 4.7 4.5 5.0 5.2 5.4 5.7 6.1 6.2 6.0 5.8 6.0 6.5 6.4 6.3 6.5 6.6 6.7 7.0
5.3 5.1 4.4 3.8 3.1 2.6 2.3 2.9 3.9 4.7 4.8 5.0 4.7 5.2 5.8 6.4 6.8 6.3 5.9 5.7 5.9 6.0 5.9 6.3 5.8 5.2 5.3 5.6 5.8 5.8 5.7 5.5 5.5 5.7 5.8 6.1 5.9 5.9 6.2 6.3 6.3 6.5 6.5 6.6 7.1
5.5 5.0 4.6 4.2 3.9 3.8 3.3 3.4 3.6 4.0 5.3 5.4 5.6 5.1 6.5 6.6 6.0 6.3 6.0 5.9 5.7 6.0 6.2 6.4 5.7 6.0 6.0 5.9 5.7 5.6 5.4 5.3 5.5 5.9 6.0 5.9 5.8 6.0 6.2 6.6 6.7 6.6 6.8 6.8 7.2
5.7 5.8 5.9 5.3 5.2 4.6 4.8 4.5 4.2 5.3 4.8 6.6 6.7 6.2 7.1 7.1 6.5 6.8 6.5 6.8 6.6 6.7 6.8 7.2 6.7 6.9 6.4 6.2 5.9 5.7 5.5 5.4 5.8 6.3 6.2 5.7 5.4 6.2 6.6 6.7 6.8 6.8 6.9 7.2 6.7
6.5 6.8 6.4 6.0 5.7 5.6 6.0 6.1 5.7 6.0 6.1 6.2 7.4 7.6 7.6 7.7 6.7 7.6 7.3 7.1 6.7 6.8 7.4 6.9 6.8 6.5 6.5 6.1 6.0 5.8 5.9 6.1 6.0 5.7 5.3 6.0 4.2 5.1 6.0 6.7 6.9 7.1 6.9 6.3 6.3
7.0 7.0 6.7 6.7 6.9 7.8 8.0 7.7 7.0 6.7 6.3 7.8 7.5 7.1 7.3 7.6 6.7 7.3 8.0 7.6 7.0 7.2 7.2 6.9 6.9 7.2 6.8 6.7 6.6 5.8 6.4 6.2 6.1 5.8 5.4 5.3 5.3 5.1 5.7 6.5 7.2 6.9 6.5 6.5 6.2
7.1 7.2 7.1 7.1 7.1 7.6 7.9 7.7 7.0 6.9 6.9 8.0 7.4 7.0 7.1 7.0 6.6 6.9 7.4 7.5 7.0 7.1 7.1 7.1 6.8 6.9 6.8 6.8 6.6 6.3 6.2 6.3 6.4 6.1 4.4 5.4 6.3 5.3 6.3 6.3 6.5 6.6 6.6 6.1 5.9
7.1 7.2 7.0 6.9 6.9 7.1 7.3 6.8 6.8 7.3 8.1 7.4 7.2 7.3 7.0 7.1 6.9 6.9 7.1 7.5 7.4 6.7 6.6 6.5 6.5 6.7 6.7 6.7 6.4 6.1 6.4 6.2 5.8 5.4 5.3 6.6 6.1 6.3 6.4 6.2 6.3 6.4 6.5 6.5 6.1
7.2 7.0 6.8 6.6 6.6 6.8 6.6 6.7 7.2 7.5 7.2 7.1 7.2 7.0 6.8 7.0 6.8 7.0 7.0 7.4 7.4 7.2 7.1 7.0 7.0 7.2 7.1 6.7 7.0 6.8 6.8 6.5 6.4 5.9 5.8 6.8 5.7 6.2 6.4 6.4 6.3 6.1 5.9 6.2 6.2
7.3 6.7 6.9 6.8 6.5 6.7 6.9 6.6 7.3 7.2 6.7 7.0 7.1 6.7 6.6 7.1 7.0 7.0 6.9 6.8 7.1 6.9 6.8 6.7 6.9 7.0 7.3 7.3 7.1 6.9 6.9 7.0 7.2 6.8 6.1 6.5 6.5 6.5 6.5 6.7 6.6 6.7 6.4 6.2 6.1
7.1 6.7 7.0 6.9 6.6 6.6 6.7 6.8 7.0 6.8 6.4 6.9 6.8 6.6 6.5 6.8 7.1 7.1 6.7 6.5 6.4 6.6 6.6 6.5 6.6 7.3 7.3 7.4 7.3 7.1 7.2 7.1 6.8 6.3 6.4 5.8 6.1 6.5 6.8 6.9 7.0 6.6 6.5 6.6 6.4
6.6 6.5 6.9 6.9 6.7 6.7 6.7 7.0 7.0 6.9 6.7 6.6 6.8 6.8 6.5 6.3 6.7 6.8 6.5 6.5 6.6 6.6 6.6 6.8 6.5 7.1 7.3 7.2 7.3 7.3 6.8 7.0 7.1 7.2 6.6 6.3 6.3 7.0 6.9 6.9 6.9 6.3 6.7 6.6 6.3
6.1 6.2 6.6 6.5 6.4 6.6 6.8 6.8 6.8 6.9 6.7 6.6 6.7 6.6 6.4 6.5 6.6 6.6 6.5 6.4 6.4 6.2 6.6 6.6 6.3 6.5 7.2 7.3 7.3 7.3 7.2 7.4 7.1 6.6 7.1 7.5 6.4 7.2 7.3 7.2 7.0 6.8 6.5 6.4 6.1
5.9 6.0 6.3 6.5 6.4 6.5 6.7 6.6 6.5 6.5 6.6 6.8 6.8 6.4 6.3 6.6 6.8 6.7 6.7 6.6 6.5 6.7 6.6 6.7 6.4 6.6 7.2 7.6 7.4 7.4 7.6 7.7 7.5 7.4 7.5 7.0 7.2 7.8 7.7 7.4 7.2 6.9 6.5 5.7 5.8
5.7 5.9 6.3 6.5 6.4 6.3 6.5 6.5 6.5 6.7 6.7 6.7 6.7 6.5 6.3 6.2 6.5 6.7 7.0 6.9 6.4 6.6 6.6 6.6 6.8 6.7 7.2 7.4 7.0 7.6 7.7 7.6 7.4 7.6 7.8 7.8 7.8 7.9 7.6 7.4 6.9 6.8 6.5 5.6 5.6
5.9 5.8 6.0 6.2 6.3 6.2 6.4 6.4 6.7 6.8 6.8 6.7 6.6 6.4 6.3 6.5 6.5 6.6 6.8 7.1 7.0 6.7 7.0 6.8 6.9 6.6 6.7 7.1 6.9 7.1 7.6 7.4 7.1 7.3 7.4 7.6 7.7 7.8 7.4 7.1 7.1 6.6 6.3 5.7 5.5
6.1 6.0 6.1 6.1 6.2 6.1 6.4 6.5 6.8 6.7 6.8 6.7 6.7 6.7 6.9 7.4 7.0 6.8 6.8 6.8 6.7 7.2 6.8 7.0 6.7 6.4 6.6 7.1 6.4 6.5 7.5 7.5 7.0 7.2 7.0 7.3 7.7 7.6 7.4 6.8 6.6 6.6 6.2 5.9 5.5
6.1 6.0 5.9 6.1 6.1 6.3 6.4 6.4 6.6 6.3 6.5 6.6 6.7 7.2 7.7 7.9 7.9 7.6 7.4 7.3 6.9 6.7 6.9 6.9 6.8 6.8 6.9 6.9 7.1 7.0 7.3 7.1 7.2 7.2 7.1 7.0 7.4 7.3 6.9 6.9 7.0 6.7 6.4 5.8 5.8
Wind_Speed
16 16 18 18 18 19 20 21 21 23 24 24 23 24 25 28 29 6 8 14 10 14 11 7 4 5 3 2 2 4 2 5 7 8 6 3 1 2 3 2 4 2 4 3 6
16 17 17 18 19 19 20 21 21 23 24 26 26 25 25 29 9 10 12 14 19 13 7 11 7 8 3 3 3 4 5 11 6 7 6 2 2 1 4 6 5 4 1 4 8
19 19 18 19 19 20 20 21 23 26 25 25 27 27 25 25 6 6 8 3 13 12 1 5 6 7 5 4 6 6 8 3 6 6 4 3 4 4 1 6 8 7 3 5 4
18 18 20 20 21 21 21 20 23 25 26 27 26 26 26 3 8 1 13 6 8 8 3 6 4 7 6 7 6 5 6 7 4 6 3 6 2 4 7 9 11 8 5 6 9
20 18 18 19 22 23 21 22 23 25 26 25 25 23 7 4 11 8 10 9 2 6 6 5 5 5 6 6 4 6 4 5 7 7 6 6 13 9 7 12 12 9 6 10 10
21 21 19 18 20 23 22 24 25 25 27 25 23 21 7 14 6 8 6 7 3 4 5 6 6 7 4 6 8 3 11 16 8 11 5 9 17 4 6 7 10 8 10 10 10
22 22 22 22 22 21 23 25 26 28 28 25 22 11 15 25 5 13 13 5 3 3 3 5 5 3 4 2 6 5 10 8 6 5 7 4 11 13 10 9 10 10 8 7 11
18 20 19 21 22 22 23 24 28 32 32 30 21 9 11 8 17 18 12 9 12 11 10 7 3 5 5 4 5 3 3 3 3 10 6 9 25 3 9 6 7 8 7 5 7
18 19 18 19 20 23 24 24 31 37 34 22 8 6 13 8 8 13 15 9 6 6 6 6 6 6 3 6 3 3 4 5 2 7 5 10 12 2 4 6 7 7 8 8 7
21 22 23 23 23 20 22 26 32 22 3 9 4 3 8 6 3 3 8 9 4 9 3 5 3 4 4 5 12 7 4 4 4 2 3 8 16 6 8 5 8 9 9 9 9
21 21 24 24 23 20 12 5 6 3 3 6 6 6 8 8 4 1 2 4 3 3 8 5 5 11 8 9 5 2 5 5 2 3 3 7 14 6 9 8 8 8 9 9 10
22 22 23 23 20 20 3 1 5 7 13 14 20 22 26 11 10 16 2 5 5 6 6 3 18 8 8 7 6 6 6 5 4 6 5 8 25 9 7 8 9 11 8 10 8
20 20 23 22 18 7 3 5 10 13 8 10 10 9 10 15 14 22 3 2 4 7 10 7 3 11 12 7 9 6 9 4 8 4 3 5 18 9 7 5 7 7 8 6 9
20 22 21 21 7 4 8 6 15 14 5 6 5 6 6 7 7 10 14 7 5 10 6 7 7 5 7 8 7 10 8 9 6 2 3 4 8 0 6 6 3 8 7 7 9
19 22 22 9 3 2 7 15 9 5 5 1 3 2 5 7 5 4 4 1 9 7 6 6 3 7 10 6 8 6 8 8 6 5 1 3 4 5 3 7 9 7 8 8 9
19 20 21 3 1 7 12 13 3 2 5 7 3 0 3 5 3 3 4 2 3 2 0 5 2 3 7 5 8 5 3 3 2 3 3 8 7 3 4 2 3 3 7 8 10
21 20 15 1 4 5 6 3 6 3 9 9 6 7 3 5 1 3 5 5 5 5 6 0 10 2 3 3 2 3 5 1 1 1 5 6 5 8 5 4 5 6 8 8 11
21 20 7 7 11 1 2 3 3 7 6 8 7 9 5 10 5 6 6 3 3 1 3 6 2 10 7 12 8 7 7 5 5 4 3 4 6 5 4 5 4 1 3 5 16
15 4 4 3 7 2 3 2 5 7 9 9 9 7 9 6 4 7 6 8 8 11 3 3 3 2 3 5 12 5 5 7 2 1 1 4 6 5 4 5 6 7 9 12 17
2 5 4 7 3 3 3 4 5 4 8 6 7 7 8 10 8 8 8 8 9 8 5 2 1 3 2 4 4 6 5 3 1 3 5 4 3 5 2 5 6 7 10 13 19
3 4 3 8 2 3 2 3 5 5 4 4 5 4 4 7 6 5 8 5 10 12 8 6 2 6 6 2 2 3 2 4 4 5 4 7 5 5 4 4 5 1 5 10 18
2 3 2 2 2 2 2 3 7 5 4 3 2 2 3 5 4 5 5 5 9 11 6 2 1 2 6 3 3 3 2 6 3 3 2 2 11 5 5 8 6 4 2 6 13
2 2 2 2 0 1 5 4 4 4 5 5 4 2 1 3 4 4 2 1 6 6 4 5 2 1 5 3 3 4 2 1 2 2 5 4 5 3 6 5 5 4 4 6 13
2 3 3 3 1 4 3 4 4 6 4 3 4 4 4 2 4 4 3 2 6 7 11 1 1 2 4 3 4 4 3 2 1 2 3 4 4 6 7 7 10 7 7 4 11
1 3 3 2 1 3 4 3 5 3 3 6 4 5 3 3 5 3 3 4 4 6 7 2 1 2 4 5 9 5 3 2 1 2 4 3 3 2 5 7 9 10 10 8 10
3 2 1 3 3 4 3 2 5 5 3 2 3 8 5 4 4 5 6 2 3 6 3 4 3 2 3 4 10 8 8 4 8 7 10 6 4 1 3 5 12 10 13 11 12
1 1 1 3 3 1 3 3 4 5 3 3 5 7 6 5 7 13 7 6 4 2 3 2 2 2 1 2 7 5 5 2 4 3 2 4 3 7 5 9 12 12 12 12 13
Wind_Direction
335 333 332 334 335 332 331 331 331 333 330 330 330 328 327 320 318 285 239 224 194 235 164 124 108 153 107 202 121 135 127 210 224 174 230 216 90 306 260 226 328 267 173 278 110
329 330 329 329 330 328 327 327 326 329 332 330 328 327 328 321 307 254 252 252 219 159 166 160 160 136 163 192 207 170 196 208 220 198 214 226 16 83 347 353 286 311 85 61 135
324 322 323 323 325 324 324 325 323 324 326 329 329 327 329 326 306 245 336 325 199 189 217 169 127 143 171 161 196 210 236 207 250 238 215 232 261 158 274 302 245 271 276 158 156
328 318 318 319 319 319 318 318 318 319 321 324 327 326 327 303 272 76 7 54 176 176 280 152 151 159 179 197 213 232 225 205 244 216 258 258 219 235 179 238 263 244 264 168 189
327 324 313 316 317 315 314 314 312 313 316 319 322 323 347 306 256 306 7 356 110 147 191 182 149 159 179 192 203 232 226 231 238 241 238 273 259 242 215 243 273 267 230 225 207
323 318 311 313 313 310 311 309 308 309 309 312 313 315 287 264 243 295 18 347 248 188 205 166 199 203 213 207 191 226 229 245 235 254 243 249 265 214 227 238 260 254 254 236 213
325 323 319 317 314 308 304 302 304 303 302 300 300 300 263 246 260 285 295 282 266 307 248 223 207 173 168 275 251 254 261 267 221 214 236 221 263 239 245 229 244 258 268 258 227
325 323 320 315 314 308 299 302 304 297 295 291 287 265 255 264 251 256 264 274 231 235 242 265 194 191 177 279 323 253 227 215 240 185 224 168 261 283 240 217 251 266 260 245 246
333 328 325 322 318 309 300 309 302 295 294 279 226 206 270 290 252 249 217 235 198 183 200 251 134 192 151 159 302 256 239 211 280 196 184 194 267 248 349 333 288 282 287 287 270
328 328 327 327 319 307 313 319 297 302 30 129 191 225 262 250 263 229 160 208 214 135 139 189 182 185 172 155 215 212 218 235 214 298 236 256 267 285 291 296 280 282 282 283 278
329 323 322 326 329 325 344 346 355 306 283 252 227 266 302 330 322 299 143 164 238 123 164 191 189 213 191 202 212 199 224 220 183 233 346 258 270 250 277 287 271 265 263 271 268
330 324 323 325 325 324 62 203 238 348 290 243 250 251 256 276 300 286 278 192 173 174 142 144 234 211 196 211 211 206 233 244 264 244 264 286 280 278 241 247 252 265 261 259 284
333 331 334 325 328 341 325 238 301 334 267 272 219 230 229 197 233 259 208 227 199 175 188 199 206 194 184 192 206 195 213 167 245 323 293 286 284 249 257 239 249 258 254 265 262
331 331 327 333 325 341 300 323 346 320 273 266 219 251 188 138 240 217 193 169 213 198 164 233 234 146 180 217 174 228 179 202 230 141 248 132 290 104 225 247 266 280 269 296 318
329 326 323 341 292 281 267 334 316 257 284 188 144 156 150 186 299 183 145 106 180 179 159 222 199 202 212 191 171 216 178 190 209 186 142 165 280 288 16 300 280 297 323 334 318
324 321 328 40 328 252 305 304 327 203 251 348 101 61 178 223 281 138 130 51 141 164 109 213 359 146 183 185 167 176 151 153 82 124 258 180 185 204 199 201 336 341 346 337 328
320 315 318 161 248 312 320 336 268 219 338 345 335 335 290 317 50 185 150 168 142 134 231 74 245 238 143 101 114 157 94 193 234 198 235 190 180 258 284 333 64 12 344 337 324
322 318 284 249 258 37 360 262 282 32 7 330 325 334 53 11 351 334 120 149 205 137 144 179 232 171 198 197 186 184 164 172 200 195 242 164 234 247 135 102 76 284 271 323 350
331 321 313 270 307 107 42 303 307 28 332 319 314 30 12 357 5 9 45 15 38 14 307 136 278 206 192 174 171 194 181 187 259 211 320 220 282 292 146 22 32 10 358 347 348
2 331 297 313 147 68 81 266 349 354 326 334 14 12 13 3 15 15 22 33 359 3 334 299 360 260 64 115 220 188 174 99 63 209 241 237 248 234 342 336 346 356 357 343 347
41 355 293 59 9 43 136 290 288 316 354 331 325 326 7 14 349 359 30 58 8 354 346 351 109 295 23 13 133 103 223 201 169 161 239 282 261 200 172 225 242 342 3 349 354
20 353 291 24 45 140 300 282 324 301 305 311 295 292 8 354 3 18 14 17 356 337 344 10 13 252 237 255 184 159 214 174 170 205 219 241 267 170 203 219 193 189 124 348 12
317 278 325 98 331 268 288 270 264 312 319 333 327 6 342 339 346 1 351 78 14 347 7 347 356 46 328 16 15 107 106 19 116 94 214 184 266 246 16 331 160 239 314 32 12
41 326 319 50 315 317 328 329 322 313 279 289 290 335 329 245 236 310 307 9 351 343 332 329 5 303 178 223 318 300 139 85 120 148 173 224 285 2 0 1 336 311 275 26 14
121 246 205 294 130 298 315 302 298 318 308 353 22 32 19 313 328 223 307 350 320 329 1 303 233 273 245 349 311 234 279 59 144 287 188 242 303 24 328 340 342 14 12 31 3
162 200 287 280 283 281 273 274 320 344 308 24 21 333 318 264 229 285 321 73 303 350 324 303 8 290 295 89 290 284 207 196 271 214 262 254 279 273 310 355 29 22 26 16 7
143 187 108 289 310 52 246 271 322 1 286 269 324 320 296 276 257 256 247 248 205 270 319 267 246 265 304 81 313 267 222 173 106 40 246 245 15 342 5 23 34 22 25 12 3